Home   Weather   Aylesbury   Past weeks

Flag for United Kingdom Past Weather in Aylesbury, England, United Kingdom — Yesterday and Last 2 Weeks

Now
56 °F

Cool.


Feels Like: 55 °F
Forecast: 53 / 73 °F
Wind: 5 mph from Northwest

Location: High Wicombe Hqstc

Current Time: Sep 1, 2016 at 12:43:56 AM

Latest Report: Sep 1, 2016 at 12:00 AM


Visibility: 11 mi

Pressure: 30.18 "Hg

Humidity: 87%

Dew Point: 52 °F

Location of AylesburyLocation

Past Weather in Aylesbury — Graph

°F

Aylesbury Temperature Yesterday

Maximum temperature yesterday: 69 °F (at 1:00 PM)
Minimum temperature yesterday: 53 °F (at 5:00 AM)
Average temperature yesterday: 61 °F

High & Low Weather Summary for the Past Weeks

 TemperatureHumidityPressure
High85 °F (Aug 24, 3:00 PM)100% (Aug 29, 8:00 AM)30.28 "Hg (Aug 29, 8:00 AM)
Low53 °F (Aug 17, 3:00 AM)41% (Aug 17, 4:00 PM)29.65 "Hg (Aug 19, 7:00 PM)
Average64 °F80%30.00 "Hg
* Reported Aug 16 11:00 PM — Aug 31 11:00 PM, Aylesbury, Weather by CustomWeather, © 2016

Note: Actual official high and low records may vary slightly from our data, if they occured in-between our weather recording intervals... More about our weather records

Advertising

Aylesbury Weather History for the Previous 24 Hours

Scroll right to see more
 ConditionsComfort  
Time TempWeatherWind HumidityBarometerVisibility
11:00 PM
Wed, Aug 31
57 °FCool.6 mph83%30.18 "Hg12 mi
10:00 PM58 °FCool.2 mph79%30.18 "Hg16 mi
9:00 PM60 °FCool.2 mph82%30.17 "Hg19 mi
8:00 PM62 °FCool.5 mph79%30.15 "Hg28 mi
7:00 PM65 °FMild.6 mph81%30.13 "Hg28 mi
6:00 PM67 °FMild.7 mph80%30.12 "Hg18 mi
5:00 PM68 °FMild.7 mph71%30.11 "Hg19 mi
4:00 PM69 °FMild.7 mph70%30.12 "Hg31 mi
3:00 PM67 °FMild.7 mph72%30.12 "Hg22 mi
2:00 PM68 °FMild.8 mph68%30.11 "Hg28 mi
1:00 PM69 °FMild.7 mph65%30.11 "Hg19 mi
12:00 PM68 °FMild.7 mph69%30.11 "Hg22 mi
11:00 AM64 °FMild.7 mph67%30.13 "Hg22 mi
10:00 AM63 °FMild.5 mph80%30.13 "Hg25 mi
9:00 AM60 °FCool.3 mph82%30.13 "Hg22 mi
8:00 AM57 °FCool.3 mph82%30.13 "Hg19 mi
7:00 AM54 °FCool.3 mph89%30.13 "Hg22 mi
6:00 AM54 °FCool.3 mph86%30.13 "Hg19 mi
5:00 AM53 °FCool.2 mph93%30.14 "Hg11 mi
4:00 AM54 °FCool.3 mph91%30.14 "Hg10 mi
3:00 AM55 °FCool.5 mph88%30.15 "Hg12 mi
2:00 AM57 °FCool.5 mph83%30.16 "Hg18 mi
1:00 AM58 °FCool.5 mph80%30.16 "Hg19 mi
12:00 AM60 °FCool.5 mph77%30.18 "Hg28 mi
Weather by CustomWeather, © 2016

See weather overviewHow to use our weather pages